Bedford, MA

8:51 AM EDT on April 23, 2017 (GMT -0400)
Hanscom

Weather History for KBED - November, 2013

Change the Weather History Date:

Sunday, November 24, 2013

  Actual Average Record
Temperature  
Mean Temperature 23 °F -  
Max Temperature 27 °F 47 °F 70 °F (1979)
Min Temperature 19 °F 28 °F -1 °F (1989)
Degree Days  
Heating Degree Days 42    
Moisture  
Dew Point 1 °F    
Average Humidity 41    
Maximum Humidity 69    
Minimum Humidity 23    
Precipitation  
Precipitation 0.00 in - - ()
Sea Level Pressure  
Sea Level Pressure 30.00 in    
Wind  
Wind Speed 17 mph (WNW)    
Max Wind Speed 30 mph    
Max Gust Speed 46 mph    
Visibility 10 miles    
Events      
Averages and records for this station are not official NWS values.
T = Trace of Precipitation, MM = Missing Value Source: NWS Daily Summary

Daily Weather History Graph

Daily Weather History Graph

Search for Another Location

Airport or City:

Trip Planner

Search our weather history database for the weather conditions in past years. The results will help you decide how hot, cold, wet, or windy it might be!

Date:

Astronomy

Nov. 24, 2013 Rise Set
Actual Time 6:47 AM EST 4:16 PM EST
Civil Twilight 6:16 AM EST 4:47 PM EST
Nautical Twilight 5:41 AM EST 5:21 PM EST
Astronomical Twilight 5:08 AM EST 5:55 PM EST
Moon 10:43 PM EST (11/24) 11:30 AM EST (11/24)
Length of Visible Light 10h 30m
Length of Day
9h 28m
Waning Gibbous, 61% of the Moon is Illuminated
Nov 24
Waning Gibbous
Nov 25
Last Quarter
Dec 2
New
Dec 9
First Quarter
Dec 17
Full

Hourly Weather History & Observations

Time (EST) Temp. Windchill Dew Point Humidity Pressure Visibility Wind Dir Wind Speed Gust Speed Precip Events Conditions
12:56 AM 27.0 °F 16.7 °F 12.0 °F 53% 29.83 in 10.0 mi West 11.5 mph 19.6 mph N/A   Clear
1:56 AM 25.0 °F 12.2 °F 16.0 °F 69% 29.84 in 10.0 mi West 16.1 mph 24.2 mph N/A   Clear
2:56 AM 24.1 °F 11.0 °F 12.0 °F 60% 29.85 in 10.0 mi West 16.1 mph 26.5 mph N/A   Clear
3:56 AM 23.0 °F 11.7 °F 10.9 °F 60% 29.86 in 10.0 mi West 11.5 mph 18.4 mph N/A   Clear
4:56 AM 21.9 °F 9.2 °F 10.9 °F 63% 29.86 in 10.0 mi West 13.8 mph 20.7 mph N/A   Clear
5:56 AM 21.9 °F 6.9 °F 3.9 °F 46% 29.88 in 10.0 mi WNW 19.6 mph 31.1 mph N/A   Mostly Cloudy
6:56 AM 21.0 °F 8.6 °F 3.0 °F 46% 29.90 in 10.0 mi West 12.7 mph 20.7 mph N/A   Scattered Clouds
7:56 AM 21.0 °F 5.4 °F 3.0 °F 46% 29.93 in 10.0 mi WNW 20.7 mph 28.8 mph N/A   Mostly Cloudy
8:56 AM 21.0 °F 4.6 °F 3.0 °F 46% 29.94 in 10.0 mi WNW 23.0 mph 32.2 mph N/A   Mostly Cloudy
9:56 AM 21.9 °F 5.5 °F 1.9 °F 42% 29.95 in 10.0 mi WNW 24.2 mph 34.5 mph N/A   Scattered Clouds
10:56 AM 23.0 °F 8.7 °F -0.0 °F 37% 29.96 in 10.0 mi WNW 18.4 mph 40.3 mph N/A   Clear
11:56 AM 26.1 °F 12.7 °F -0.0 °F 32% 29.96 in 10.0 mi WNW 18.4 mph 33.4 mph N/A   Clear
12:56 PM 26.1 °F 9.6 °F -2.0 °F 30% 29.97 in 10.0 mi WNW 29.9 mph 38.0 mph N/A   Clear
1:56 PM 26.1 °F 11.0 °F -5.1 °F 26% 29.97 in 10.0 mi NW 24.2 mph 44.9 mph N/A   Clear
2:56 PM 26.1 °F 11.3 °F -7.1 °F 23% 30.01 in 10.0 mi NW 23.0 mph 32.2 mph N/A   Clear
3:56 PM 24.1 °F 7.1 °F -7.1 °F 25% 30.05 in 10.0 mi WNW 28.8 mph 46.0 mph N/A   Clear
4:56 PM 23.0 °F 6.3 °F -6.0 °F 28% 30.08 in 10.0 mi NW 26.5 mph 38.0 mph N/A   Partly Cloudy
5:56 PM 21.9 °F 5.5 °F -2.0 °F 35% 30.10 in 10.0 mi WNW 24.2 mph 33.4 mph N/A   Clear
6:56 PM 21.9 °F 6.5 °F -2.0 °F 35% 30.13 in 10.0 mi WNW 20.7 mph 29.9 mph N/A   Clear
7:56 PM 21.0 °F 7.6 °F -2.0 °F 36% 30.14 in 10.0 mi WNW 15.0 mph 31.1 mph N/A   Clear
8:56 PM 19.9 °F 7.3 °F -2.9 °F 37% 30.16 in 10.0 mi WNW 12.7 mph - N/A   Clear
9:56 PM 19.9 °F 6.2 °F -2.9 °F 37% 30.18 in 10.0 mi WNW 15.0 mph 23.0 mph N/A   Clear
10:56 PM 19.0 °F 4.0 °F -4.0 °F 36% 30.21 in 10.0 mi WNW 17.3 mph 24.2 mph N/A   Clear
11:56 PM 19.0 °F 4.5 °F -2.9 °F 38% 30.24 in 10.0 mi West 16.1 mph 21.9 mph N/A   Clear